TimePST,TemperatureF,Dew PointF,Humidity,Sea Level PressureIn,VisibilityMPH,Wind Direction,Wind SpeedMPH,Gust SpeedMPH,PrecipitationIn,Events,Conditions,WindDirDegrees,DateUTC
12:53 AM,34.0,27.0,75,29.94,10.0,Calm,Calm,-,N/A,,Unknown,0,2012-11-08 08:53:00
1:53 AM,30.9,25.0,79,29.92,10.0,Calm,Calm,-,N/A,,Clear,0,2012-11-08 09:53:00
2:53 AM,30.0,25.0,82,29.91,10.0,NE,3.5,-,N/A,,Scattered Clouds,50,2012-11-08 10:53:00
3:53 AM,30.0,24.1,79,29.89,10.0,Calm,Calm,-,N/A,,Scattered Clouds,0,2012-11-08 11:53:00
4:53 AM,30.9,25.0,79,29.89,10.0,Calm,Calm,-,N/A,,Overcast,0,2012-11-08 12:53:00
5:53 AM,33.1,27.0,78,29.87,10.0,Calm,Calm,-,N/A,,Overcast,0,2012-11-08 13:53:00
6:53 AM,32.0,27.0,82,29.86,10.0,Calm,Calm,-,N/A,,Overcast,0,2012-11-08 14:53:00
7:53 AM,35.1,28.9,78,29.85,10.0,Calm,Calm,-,N/A,,Overcast,0,2012-11-08 15:53:00
8:53 AM,36.0,30.0,79,29.85,10.0,Calm,Calm,-,N/A,,Overcast,0,2012-11-08 16:53:00
9:37 AM,37.4,30.2,75,29.80,1.5,Calm,Calm,-,0.00,Snow,Light Snow,0,2012-11-08 17:37:00
9:44 AM,35.6,30.2,81,29.79,1.5,West,4.6,-,0.00,Snow,Light Snow,270,2012-11-08 17:44:00
9:47 AM,35.6,30.2,81,29.79,3.0,WNW,5.8,-,0.00,Snow,Light Snow,290,2012-11-08 17:47:00
9:53 AM,36.0,30.9,82,29.83,2.5,WNW,5.8,-,0.00,Snow,Light Snow,290,2012-11-08 17:53:00
10:03 AM,35.6,30.2,81,29.79,6.0,West,5.8,-,0.01,Snow,Light Snow,270,2012-11-08 18:03:00
10:53 AM,42.1,34.0,73,29.81,10.0,WNW,9.2,-,0.01,,Mostly Cloudy,290,2012-11-08 18:53:00
11:53 AM,46.9,33.1,59,29.78,10.0,WNW,10.4,-,N/A,,Mostly Cloudy,290,2012-11-08 19:53:00
12:53 PM,48.9,30.0,48,29.76,10.0,WNW,11.5,-,N/A,,Clear,300,2012-11-08 20:53:00
1:53 PM,50.0,28.9,44,29.75,10.0,WNW,11.5,-,N/A,,Scattered Clouds,290,2012-11-08 21:53:00
2:53 PM,50.0,27.0,41,29.75,10.0,WNW,8.1,-,N/A,,Mostly Cloudy,300,2012-11-08 22:53:00
3:53 PM,48.0,21.9,36,29.75,10.0,NE,3.5,-,N/A,,Overcast,50,2012-11-08 23:53:00
4:53 PM,39.0,27.0,62,29.77,10.0,NW,8.1,-,N/A,,Clear,320,2012-11-09 00:53:00
5:53 PM,39.9,28.0,63,29.77,10.0,NNW,11.5,-,N/A,,Partly Cloudy,330,2012-11-09 01:53:00
6:53 PM,35.1,24.1,64,29.78,10.0,North,6.9,-,N/A,,Clear,360,2012-11-09 02:53:00
7:53 PM,34.0,21.9,61,29.78,10.0,Calm,Calm,-,N/A,,Clear,0,2012-11-09 03:53:00
8:53 PM,35.1,24.1,64,29.79,10.0,ESE,4.6,-,N/A,,Overcast,120,2012-11-09 04:53:00
9:53 PM,36.0,28.0,73,29.79,10.0,Calm,Calm,-,N/A,,Overcast,0,2012-11-09 05:53:00
10:53 PM,34.0,27.0,75,29.78,10.0,Calm,Calm,-,N/A,,Overcast,0,2012-11-09 06:53:00
11:53 PM,34.0,27.0,75,29.78,10.0,Calm,Calm,-,N/A,,Overcast,0,2012-11-09 07:53:00